Orbital Elements at Epoch 2459200.5 (2020-Dec-17.0) TDB
Reference: JPL 3 (heliocentric ecliptic J2000)
Element | Value | Uncertainty (1-sigma) | Units |
e | .4354300194634819 | 0.00019554 | |
a | .7901203469778324 | 4.3805e-05 | au |
q | .4460782289147818 | 0.00017923 | au |
i | 7.776098337411572 | 0.0055523 | deg |
node | 34.78250390647168 | 0.0010442 | deg |
peri | 337.803196731628 | 0.00079407 | deg |
M | 355.8262505811534 | 0.088999 | deg |
tp | 2459203.474145193698 (2020-Dec-19.97414519) | 0.063667 | TDB |
period | 256.5300793805563 0.70 | 0.021333 5.841e-05 | d yr |
n | 1.403344203803674 | 0.0001167 | deg/d |
Q | 1.134162465040883 | 6.2879e-05 | au |
|
| | Orbit Determination Parameters
Additional Information
|